SL-16 DEB, 22606

Orbit data source: Space-Track

SL-16 DEB, 22606 is space debris in LEO originally from a launch on Fri, 26 Mar 1993 UTC launched from the Tyuratam Missile And Space Complex (TTMTR). Debris objects in space refer to the collection of defunct objects orbiting the Earth. Examples of debris include non-operational satellites, rocket bodies, and fragments generated from explosions, collisions, or faulty payload assembly.

Loading next visibility...
Identifier
22606, 1993-016Q
Orbit
LEO
Country
Flag of CISCIS
Related business
Manufacturer
Unknown
Mission
Spacecraft
Bus & Motor
Unknown
Mass
Unknown
Launch date (UTC)
1993-03-26 (33 years ago)
Launch vehicle
Unknown
Launch site
Tyuratam Missile And Space Complex (TTMTR)
Object type
Payload
Rocket body
Debris
Shape & HBR
Unknown shape, 0.1 m
Radar Cross Section
Small (<0.1 m²)

Expand to show TLE details & history
Last TLE update: 9 hours ago

TLE from 9 hours ago
0 SL-16 DEB
1 22606U 93016Q   26035.43747584  .00000460  00000-0  38158-3 0  9991
2 22606  70.9996  63.3842 0146376 358.9746 114.8739 13.89079639660856
Epoch: 2026-02-04T10:29Z
TLE epoch observation values (Epoch: 2026-02-04T10:29:57.912Z)
Latitude
58.80264°
Longitude
-83.16047°
Altitude
987.553 km
Speed
7.34 km/s
True Right ascension
13h 55m 44s
True Declination
58° 39' 17"
Sunlit
Object was in daylight at epoch
Visualization orbit readout
Latitude
Unknown
Longitude
Unknown
Altitude
Unknown
Speed
Unknown
Apparent Right ascension
Unknown
Apparent Declination
Unknown
Sunlit
N/A
Visualization observer readout
Local Sidereal Time
21:39:22
Azimuth
Unknown
Elevation
Unknown
Doppler factor
Unknown
Orbital elements
Apogee altitude
1,036.779 km
Perigee altitude
822.837 km
Semi-major axis
7,307.945 km
Eccentricity
0.01464
Inclination
70.9996°
RAAN
63.3842°
Arg. of periapsis
358.9746°
True anomaly
116.38385°
Mean anomaly
114.8739°
Eccentric anomaly
115.63005°
Mean motion
3.47416 °/min
Orbital period
103.62 mins
BSTAR
0.00038158
Loading maneuver chart data...
Computing Atmospheric mass density...
Loading historical data...
Loading historical data...
Loading historical data...
Loading historical data...
Loading historical data...
Loading historical data...
Loading historical data...

Documentation

Showing up to 5 results
|